EW6790 Weather Reports


time (UTC)temp
C
wind
direction
speed
KPH
gust
KPH
rain 1hr
cm
rain 24hr
cm
rain mn
cm
humidity
%
barometer
mb
20260905091535 21 70 4.8 6.4 0.00 0.00 0.00 46 1011.2
20260905090033 21 71 4.8 8.0 0.00 0.00 0.00 47 1011.0
20260905084530 21 80 4.8 8.0 0.00 0.00 0.00 48 1011.4
20260905083034 21 74 3.2 8.0 0.00 0.00 0.00 50 1011.6
20260905081528 21 60 4.8 8.0 0.00 0.00 0.00 53 1011.7
20260905080008 22 58 1.6 6.4 0.00 0.00 0.00 54 1011.6
20260905074506 22 66 0.0 1.6 0.00 0.00 0.00 57 1011.6
20260905073046 22 65 0.0 6.4 0.00 0.00 0.00 57 1011.6
20260905071543 22 73 0.0 4.8 0.00 0.00 0.00 57 1011.5
20260905070025 22 53 3.2 6.4 0.00 0.00 0.00 59 1011.5
20260905064524 23 71 6.4 9.7 0.00 0.00 0.00 60 1011.4
20260905063005 23 82 4.8 8.0 0.00 0.00 0.00 60 1011.4
20260905061504 23 85 6.4 8.0 0.00 0.00 0.00 65 1011.2
20260905060049 23 68 6.4 11.3 0.00 0.00 0.00 68 1011.3
20260905054543 23 85 8.0 11.3 0.00 0.00 0.00 70 1011.2
20260905053022 23 60 6.4 9.7 0.00 0.00 0.00 71 1011.0
20260905051528 24 66 8.0 11.3 0.00 0.00 0.00 75 1010.9
20260905050006 24 70 8.0 11.3 0.00 0.00 0.00 77 1010.9
20260905044506 24 73 8.0 12.9 0.00 0.00 0.00 79 1010.9
20260905043002 25 67 8.0 12.9 0.00 0.00 0.00 77 1010.9
20260905041503 25 71 6.4 11.3 0.00 0.00 0.00 75 1010.9
20260905040104 25 55 6.4 12.9 0.00 0.00 0.00 76 1011.0
20260905034600 25 63 0.0 4.8 0.00 0.00 0.00 76 1011.0
20260905033102 25 56 4.8 9.7 0.00 0.00 0.00 75 1010.8
20260905031604 25 70 1.6 4.8 0.00 0.00 0.00 77 1010.9
20260905030035 26 62 0.0 3.2 0.00 0.00 0.00 78 1010.9
20260905024539 26 71 0.0 3.2 0.00 0.00 0.00 80 1010.6
20260905023014 26 66 0.0 4.8 0.00 0.00 0.00 80 1010.5
20260905021508 27 82 0.0 6.4 0.00 0.00 0.00 83 1010.3
20260905020051 27 70 0.0 1.6 0.00 0.00 0.00 85 1010.3
20260905014548 27 70 0.0 3.2 0.00 0.00 0.00 86 1010.0
20260905013026 28 88 0.0 1.6 0.00 0.00 0.00 86 1009.8
20260905011527 29 88 0.0 0.0 0.00 0.00 0.00 84 1009.6
20260905010000 30 88 1.6 4.8 0.00 0.00 0.00 83 1009.3
20260905004557 30 121 0.0 0.0 0.00 0.00 0.00 80 1009.3
20260905003038 31 120 0.0 0.0 0.00 0.00 0.00 78 1009.3
20260905001539 32 65 0.0 0.0 0.00 0.00 0.00 76 1009.2
20260905000031 35 340 0.0 0.0 0.00 0.00 0.00 68 1009.1
20260904234518 36 340 0.0 0.0 0.00 0.00 0.00 65 1009.1
20260904233120 36 339 0.0 0.0 0.00 0.00 0.00 63 1009.1
20260904231557 35 340 0.0 1.6 0.00 0.00 0.00 67 1009.1
20260904230108 35 28 0.0 3.2 0.00 0.00 0.00 66 1009.0
20260904224534 36 49 0.0 1.6 0.00 0.00 0.00 66 1008.9
20260904223035 34 68 0.0 4.8 0.00 0.00 0.00 69 1008.8
20260904221511 34 16 0.0 8.0 0.00 0.00 0.00 65 1008.8
20260904220008 34 102 1.6 6.4 0.00 0.00 0.00 65 1008.8
20260904214550 33 67 1.6 8.0 0.00 0.00 0.00 67 1008.8
20260904213050 34 288 0.0 8.0 0.00 0.00 0.00 65 1008.8
20260904211529 33 115 0.0 4.8 0.00 0.00 0.00 65 1008.9
20260904210031 34 78 3.2 8.0 0.00 0.00 0.00 62 1008.8
20260904204507 33 256 0.0 6.4 0.00 0.00 0.00 64 1008.8
20260904203006 33 68 0.0 6.4 0.00 0.00 0.00 64 1008.8
20260904201553 33 94 4.8 8.0 0.00 0.00 0.00 69 1008.8
20260904200054 33 70 3.2 8.0 0.00 0.00 0.00 65 1008.8
20260904194537 33 103 1.6 6.4 0.00 0.00 0.00 66 1008.8
20260904193023 33 103 0.0 6.4 0.00 0.00 0.00 69 1008.8
20260904191516 33 118 1.6 8.0 0.00 0.00 0.00 67 1008.8
20260904190009 32 146 1.6 9.7 0.00 0.00 0.00 68 1008.9
20260904184504 32 72 0.0 9.7 0.00 0.00 0.00 68 1009.0
20260904183002 32 51 1.6 6.4 0.00 0.00 0.00 68 1009.0
20260904181600 32 148 1.6 8.0 0.00 0.00 0.00 70 1009.0
20260904180108 31 101 6.4 9.7 0.00 0.00 0.00 68 1008.9
20260904174616 31 117 0.0 8.0 0.00 0.00 0.00 71 1008.9
20260904173051 31 112 4.8 9.7 0.00 0.00 0.00 72 1009.0
20260904171534 30 70 4.8 8.0 0.00 0.00 0.00 72 1009.0
20260904170044 30 67 3.2 8.0 0.00 0.00 0.00 72 1009.0
20260904164513 30 53 3.2 6.4 0.00 0.00 0.00 71 1008.9
20260904163010 30 118 1.6 4.8 0.00 0.00 0.00 74 1008.9
20260904161604 29 252 0.0 4.8 0.00 0.00 0.00 75 1008.8
20260904160052 29 231 0.0 4.8 0.00 0.00 0.00 76 1008.7
20260904154534 28 273 3.2 6.4 0.00 0.00 0.00 76 1008.8
20260904153034 28 275 3.2 9.7 0.00 0.00 0.00 77 1008.8
20260904151516 27 267 3.2 11.3 0.00 0.00 0.00 80 1008.8
20260904150017 27 262 3.2 11.3 0.00 0.00 0.00 81 1008.9
20260904144558 27 276 3.2 9.7 0.00 0.00 0.00 81 1008.9
20260904143057 27 253 3.2 11.3 0.00 0.00 0.00 81 1008.9
20260904141539 26 248 6.4 12.9 0.00 0.00 0.00 82 1008.9
20260904140040 26 202 4.8 9.7 0.00 0.00 0.00 83 1008.7
20260904134520 26 196 3.2 6.4 0.00 0.00 0.00 83 1008.7
20260904133020 25 188 3.2 6.4 0.00 0.00 0.00 84 1008.8
20260904131503 -17 0.0 0.0 0.00 0.10 0.00 1008.9
20260904124555 -17 0.0 0.0 0.00 0.10 0.00 1008.8
20260904123050 -17 0.0 0.0 0.00 0.10 0.00 1008.6
20260904121546 -17 0.0 0.0 0.00 0.10 0.00 1008.4
20260904120049 -17 0.0 0.0 0.00 0.10 0.00 1008.4
20260904114537 -17 0.0 0.0 0.00 0.10 0.00 1008.2
20260904113033 -17 0.0 0.0 0.00 0.10 0.00 1008.1
20260904111510 -17 0.0 0.0 0.00 0.10 0.00 1007.8
20260904110006 -17 0.0 0.0 0.00 0.10 0.00 1007.7
20260904104545 -17 0.0 0.0 0.00 0.10 0.00 1007.8
20260904103040 -17 0.0 0.0 0.00 0.10 0.00 1007.7
20260904101518 -17 0.0 0.0 0.00 0.10 0.00 1007.7
20260904100025 22 202 4.8 4.8 0.00 0.10 0.00 83 1007.5
20260904094559 22 204 3.2 4.8 0.00 0.10 0.00 85 1007.6
20260904093100 23 209 4.8 8.0 0.00 0.10 0.00 86 1007.4